Location: Newark
(47.5989°N, 4.6950°E)
Time: 16:23:29
(UTC+00:00)

Envisat - Pass Details

Date: 22 November 2019
Orbit: 764 x 766 km, 98.1° (Epoch: 11 December)

Event Time Altitude Azimuth Distance (km) Brightness Sun altitude
Rises 18:44:48 0° 203° (SSW) 3,221 6.5 -27.7°
Reaches altitude 10° 18:47:36 10° 219° (SW) 2,300 5.9 -28.2°
Maximum altitude 18:51:28 22° 269° (W) 1,638 5.4 -28.8°
Drops below altitude 10° 18:55:22 10° 319° (NW) 2,312 6.0 -29.5°
Sets 18:58:12 0° 335° (NNW) 3,244 6.6 -29.9°
